{"data":{"norad_id":62073,"intl_designator":"2024-217S","name":"STARLINK-32444","alt_names":[],"object_type":"PAYLOAD","status":"ACTIVE","operator":null,"country":"US","launch_date":"2024-11-24","launch_site_code":"AFWTR","launch_vehicle":null,"mission":null,"orbit_class":"UNKNOWN","rcs_meters":null,"size_class":null,"mass_kg":null,"dimensions":null,"purposes":["comms"],"wikipedia_slug":null,"has_3d_model":false,"image_url":null,"decayed_at":null,"tle_current":{"epoch":"2026-09-21T13:41:22.285248Z","epoch_age_seconds":88962,"freshness":"FRESH","line1":"1 62073U 24217S   26264.57039682  .00015205  00000+0  46026-3 0  9997","line2":"2 62073  53.1605   0.3777 0001367  79.2447 280.8710 15.34397392103460","mean_motion":15.34397392,"eccentricity":0.0001367,"inclination_deg":53.1605,"raan_deg":0.3777,"arg_perigee_deg":79.2447,"mean_anomaly_deg":280.871,"bstar":0.00046026,"rev_number":10346,"period_min":93.847917593437,"perigee_km":461.77584782322,"apogee_km":463.64613566417,"semimajor_km":6840.8479917437,"source":"CELESTRAK","updated_at":"2026-09-22T09:00:49.495087Z"}}}